EHI
1 0 0 0 0 0 0 0 0 0 0 0 0 0 0 0 0 0 0 1 1 1 0 1 0 1 2 3 3 3 1 0 0 0 0 0 0 0 0 0 0 0 0
1 1 0 0 0 0 0 0 0 0 0 0 0 0 0 0 0 0 0 1 2 1 1 2 1 0 1 3 3 3 3 2 0 0 0 0 0 0 0 0 0 0 0
1 1 1 0 0 0 0 0 0 0 0 0 0 0 0 0 0 0 0 0 1 1 2 3 2 0 1 2 3 4 4 4 2 1 0 0 0 0 0 0 0 0 0
2 2 1 0 0 0 0 0 0 0 0 0 0 0 0 0 0 0 0 0 0 1 3 4 2 0 1 2 3 3 4 4 3 1 0 0 0 0 0 0 0 0 0
3 2 1 0 0 0 0 0 0 1 1 0 0 0 0 0 0 0 0 0 0 1 3 4 3 1 1 3 3 3 3 3 2 1 0 0 0 0 0 0 0 0 0
3 2 1 1 1 0 0 0 0 1 2 1 1 0 0 0 0 0 0 0 1 1 2 3 4 3 3 3 3 3 2 1 1 1 0 0 1 0 0 0 0 0 0
3 3 2 1 1 1 1 1 1 1 2 3 3 1 0 0 0 0 0 1 2 2 2 3 5 6 6 5 4 2 2 2 2 2 1 0 0 0 0 0 0 0 0
3 3 2 1 1 1 2 3 3 2 2 3 3 1 0 0 1 0 1 2 2 3 3 4 5 6 7 6 4 1 1 3 3 3 2 0 0 0 0 0 0 0 0
2 2 2 2 2 3 3 4 4 5 4 3 3 2 1 0 0 0 1 2 3 3 3 3 4 4 5 5 3 1 0 1 2 1 1 0 0 0 0 0 0 0 0
1 1 1 2 3 3 3 3 4 5 4 3 3 4 3 2 1 1 1 2 2 2 3 3 2 3 4 4 2 1 0 0 0 0 0 0 0 1 0 0 0 0 0
3 2 2 3 3 3 3 3 3 4 3 3 3 4 6 6 5 4 3 2 2 2 2 3 3 3 4 4 3 1 0 0 0 0 0 0 0 0 0 0 0 0 0
6 5 4 4 4 3 3 3 4 4 4 4 4 5 8 9 9 9 6 4 3 4 4 4 4 3 3 3 2 1 0 0 0 0 0 0 0 0 0 0 0 0 0
6 5 5 5 5 4 4 4 5 5 5 6 6 8 10 12 13 12 9 6 5 6 6 6 4 3 2 2 1 0 0 0 0 0 0 0 0 0 0 0 0 0 0
6 6 7 7 7 6 6 7 7 7 6 6 8 11 12 13 13 13 11 9 8 7 7 5 4 3 2 2 1 0 0 0 0 0 0 0 0 0 0 0 0 0 0
9 10 10 9 10 11 11 12 11 8 7 7 8 11 12 11 11 11 10 11 10 9 6 3 2 3 4 2 0 0 0 0 0 0 0 0 0 0 0 0 0 0 0
17 15 12 10 11 13 15 16 13 9 7 6 7 8 9 9 9 9 10 11 11 9 6 3 2 3 2 1 0 0 0 0 0 0 0 0 0 0 0 0 0 0 0
25 21 15 12 11 13 15 14 11 8 5 4 4 5 7 8 8 8 10 10 10 9 7 3 2 2 2 1 1 0 0 0 0 0 0 0 0 0 0 0 0 0 0
30 26 21 16 14 14 13 9 6 4 3 2 3 4 5 6 7 7 8 8 8 8 7 4 3 3 5 4 2 1 0 0 0 0 0 0 0 0 0 0 0 0 0
35 32 26 21 18 16 11 6 3 3 3 3 4 3 3 3 4 5 6 7 7 7 7 5 3 4 5 5 3 1 0 0 0 0 0 0 0 0 0 0 0 0 0
39 38 31 24 20 15 9 6 5 5 6 7 5 3 1 2 3 4 6 8 9 8 7 6 4 4 4 4 2 1 0 0 0 0 0 0 0 0 0 0 0 0 0
44 43 38 29 20 13 9 8 8 9 9 9 7 3 1 1 1 2 4 7 8 7 6 5 4 3 3 3 2 0 0 0 0 0 0 0 0 0 0 0 0 0 0
47 46 42 34 24 14 9 8 9 11 12 11 9 5 2 1 2 2 2 3 3 4 4 4 4 3 3 3 2 1 0 0 0 0 0 0 0 0 0 0 0 0 0
49 47 43 37 28 17 8 4 6 12 16 15 11 7 3 3 5 5 4 3 3 3 3 3 2 2 2 2 2 1 0 0 0 0 0 0 0 0 0 0 0 0 0
51 47 41 35 29 18 7 1 4 12 18 18 13 8 6 6 7 8 8 8 8 6 3 1 1 1 1 1 1 0 0 0 0 0 0 0 0 0 0 0 0 0 0
50 46 39 33 28 19 6 0 4 13 19 17 13 9 7 6 6 6 9 11 12 9 4 1 0 0 0 0 0 0 0 0 0 0 0 0 0 0 0 0 0 0 0
47 44 37 31 27 18 6 0 4 13 18 15 12 9 6 5 4 4 8 11 12 10 5 1 0 0 0 0 0 0 0 0 0 0 0 0 0 0 0 0 0 0 0
Wind_Speed
3 3 2 1 2 3 3 3 3 3 3 3 3 3 2 1 2 2 4 9 7 7 8 8 8 9 9 10 9 9 9 10 9 9 9 9 9 8 8 8 8 8 8
2 2 3 2 2 2 2 2 3 3 2 2 2 2 3 3 2 2 2 7 9 8 8 8 9 9 9 10 10 10 10 10 9 9 10 9 9 9 9 9 9 9 8
3 2 2 2 2 2 3 3 3 2 3 3 3 2 2 3 2 2 3 3 6 9 9 8 8 9 9 10 10 11 10 10 10 10 10 10 9 9 9 9 9 9 9
3 2 2 2 2 3 3 2 3 2 2 2 2 2 2 2 3 3 4 4 3 4 8 9 7 7 8 9 10 11 10 10 10 10 10 10 10 10 10 10 10 10 9
3 3 2 2 3 3 2 3 2 2 2 2 2 3 3 2 2 4 3 4 3 4 4 8 9 7 8 9 9 10 11 11 11 11 11 11 11 11 11 10 10 10 10
4 3 3 3 3 3 2 2 2 2 2 3 3 1 2 2 3 3 4 3 3 5 5 4 6 8 9 8 8 9 10 11 11 12 12 12 12 12 11 11 11 11 11
4 4 3 3 4 3 3 4 3 4 4 3 2 2 3 4 4 3 4 3 4 4 4 4 5 4 5 10 9 8 9 10 11 11 11 11 11 11 11 12 12 11 11
5 5 4 4 4 3 4 4 4 4 3 3 3 3 3 3 4 4 3 4 4 4 5 6 5 4 5 4 6 9 8 8 9 9 9 10 10 10 10 11 12 12 12
5 5 5 5 4 5 4 5 5 6 4 4 4 4 3 2 1 3 4 4 4 3 4 4 5 5 5 4 4 7 8 7 8 8 9 9 9 10 10 11 11 12 12
4 4 5 5 5 4 4 6 6 5 5 4 4 4 5 3 3 2 3 4 4 4 4 4 4 4 5 4 3 3 6 5 7 8 8 8 9 9 9 10 11 12 11
4 4 4 4 4 4 4 5 4 5 5 5 4 4 4 4 6 5 4 3 3 4 4 4 4 4 4 4 3 3 4 4 4 5 6 7 7 8 8 9 9 10 10
4 4 5 4 4 4 4 5 5 6 5 5 5 4 4 4 4 4 5 4 4 3 3 2 3 3 3 3 2 4 3 3 3 3 4 4 4 5 6 7 7 8 9
3 4 4 4 4 4 4 4 4 5 5 5 5 4 4 4 4 4 5 4 4 3 3 3 2 2 2 2 2 5 4 3 2 2 2 2 2 3 3 4 5 6 5
3 3 4 4 4 4 4 4 4 5 4 5 6 5 5 4 4 4 4 4 4 4 3 3 2 2 1 1 3 2 3 5 3 2 1 1 1 1 1 1 1 2 2
4 4 4 4 4 4 4 4 3 4 4 5 5 5 5 3 4 4 4 4 4 4 3 2 2 1 1 1 2 1 2 6 5 3 2 2 2 2 2 2 2 2 2
4 5 6 5 5 5 4 4 4 3 4 4 4 4 4 4 3 3 4 4 4 4 3 1 1 1 0 1 3 1 3 7 5 4 3 3 3 3 2 2 2 3 3
6 6 6 6 5 5 4 4 4 4 4 4 4 4 4 3 3 3 3 3 3 3 3 1 0 1 1 1 2 1 2 2 4 5 4 4 3 3 3 3 3 3 3
6 6 6 6 5 5 5 5 5 4 4 4 4 4 4 3 3 3 2 3 2 2 3 2 0 1 1 1 2 1 1 1 2 7 5 4 4 4 4 4 4 3 3
6 6 6 5 5 5 5 5 4 4 4 4 3 4 3 3 3 2 3 2 2 2 2 2 1 1 1 2 2 1 1 1 1 5 5 5 5 4 4 4 4 3 3
6 6 6 6 5 5 5 5 5 5 4 3 3 3 3 3 3 3 3 3 3 3 3 3 2 2 2 2 2 2 2 2 1 2 2 3 5 5 5 4 4 4 4
7 7 6 6 6 6 5 6 6 6 5 4 4 4 3 1 2 3 3 2 3 3 3 3 2 2 2 3 3 2 2 2 2 2 2 2 3 3 4 5 5 4 4
6 6 6 6 6 5 4 4 5 5 5 5 4 4 3 4 3 3 1 2 2 3 3 3 3 3 3 3 2 3 3 3 2 2 2 2 1 1 2 2 6 5 4
5 6 6 6 5 3 4 5 6 5 5 4 4 4 4 3 4 3 4 5 3 1 1 3 3 2 2 2 3 4 3 2 1 1 1 1 2 2 1 4 8 7 5
4 5 5 5 5 4 5 5 6 7 5 5 5 5 4 3 3 2 3 4 3 3 2 3 1 1 1 1 3 3 2 3 2 2 2 2 2 3 2 4 9 8 7
4 4 4 4 5 4 5 5 6 6 5 5 5 5 5 4 3 2 4 3 3 3 4 3 4 3 4 2 1 2 3 4 3 3 3 3 2 2 3 4 7 10 8
4 4 3 4 4 4 6 7 7 5 5 5 5 5 4 3 5 4 5 3 3 2 3 4 4 4 4 5 4 3 3 4 3 2 3 3 3 3 3 3 4 6 7
Wind_Direction
143 132 130 140 148 140 157 168 164 154 172 183 195 182 192 199 214 205 136 158 183 198 201 199 199 200 201 201 201 202 203 202 203 204 204 204 205 206 207 207 207 209 211
140 151 157 157 154 160 150 174 174 175 197 193 204 195 212 204 196 220 195 165 181 198 206 207 207 206 204 203 204 204 206 207 208 209 210 209 210 212 214 215 215 215 215
157 178 160 180 162 161 169 193 186 191 200 199 203 208 214 227 212 222 226 215 183 187 198 206 212 211 208 207 208 208 208 211 213 216 214 214 215 216 219 220 222 222 222
183 198 193 188 171 197 192 187 210 196 201 219 214 230 218 207 225 230 227 217 216 196 185 192 204 210 213 215 213 212 209 210 215 218 218 217 219 220 221 223 225 224 225
192 213 206 175 203 203 207 222 179 214 206 222 232 222 236 226 227 232 236 226 211 221 202 170 190 204 214 219 219 218 214 212 214 218 220 221 222 222 223 225 225 225 226
197 216 204 193 217 207 207 222 224 231 229 224 249 233 242 231 232 230 236 218 209 215 218 203 190 196 204 215 221 223 222 218 218 220 222 223 227 226 226 226 226 226 228
198 217 231 193 218 212 222 222 228 217 223 212 230 228 223 222 220 221 231 239 219 218 217 216 225 222 193 199 210 222 228 227 224 222 224 225 226 226 227 228 227 229 231
212 208 220 222 215 216 220 227 231 244 234 212 236 240 231 208 205 216 215 222 234 226 220 217 219 222 240 209 176 201 219 227 228 225 226 227 229 230 229 231 229 230 233
217 229 223 230 225 230 220 225 226 232 240 231 234 255 266 258 224 200 217 224 227 233 234 230 228 225 227 231 203 186 201 216 226 231 233 232 231 230 232 233 232 232 233
221 222 230 234 236 243 237 236 222 235 240 243 234 241 260 288 274 252 219 214 219 234 243 240 232 221 226 225 203 178 187 211 229 240 246 244 238 233 234 237 237 234 232
215 226 232 236 234 241 245 255 246 243 238 243 244 242 242 238 247 261 262 246 233 233 231 237 242 235 225 224 223 165 162 202 231 247 252 255 249 239 235 237 238 239 238
206 211 226 230 236 246 242 246 248 238 244 250 255 251 247 249 252 254 263 261 254 243 235 245 249 242 232 226 196 117 150 191 220 238 246 249 250 242 233 231 236 240 243
209 208 227 226 231 236 243 244 242 251 243 245 248 255 255 254 260 259 264 265 266 254 230 228 233 242 235 220 144 136 155 164 178 202 220 231 241 236 229 229 232 235 239
232 214 219 225 230 235 241 236 243 240 240 245 248 249 254 252 254 255 259 266 265 255 230 221 221 215 244 238 87 187 150 134 133 127 137 177 193 184 180 196 203 204 220
221 207 215 223 227 233 243 247 248 253 252 252 253 242 250 255 256 259 250 246 262 265 249 208 214 175 213 111 104 166 118 113 117 110 101 101 120 127 135 138 129 123 116
221 214 215 220 225 227 228 237 244 247 256 255 262 269 266 265 263 259 258 247 249 266 269 259 206 159 130 186 129 158 122 129 117 119 114 104 98 100 104 107 106 103 105
211 216 218 220 224 224 223 229 246 244 249 256 261 255 256 267 268 261 256 252 246 246 251 260 94 113 159 210 133 143 159 173 128 120 116 110 103 100 103 102 102 103 105
212 214 219 219 219 219 219 224 235 238 243 248 254 257 258 246 241 260 263 257 255 251 247 241 216 149 178 164 140 172 162 128 102 108 114 111 105 99 94 99 106 109 108
208 210 209 211 214 216 223 228 229 231 235 241 247 250 257 256 250 248 252 253 248 235 223 218 206 150 170 157 161 179 159 136 138 126 134 132 122 113 103 106 113 116 115
202 206 209 209 209 212 221 229 229 226 225 226 234 243 249 249 254 258 247 243 246 239 216 218 199 185 172 160 187 196 188 180 188 159 130 132 142 148 139 129 125 121 120
203 202 206 205 209 209 215 223 229 223 221 219 218 225 226 228 313 289 289 263 236 238 226 219 205 198 190 178 198 196 205 188 185 206 185 173 168 172 162 158 145 132 128
207 203 209 210 211 217 173 205 239 225 218 220 222 225 207 194 197 210 268 316 304 256 253 239 224 215 208 204 198 207 200 204 201 180 220 195 186 184 175 153 127 136 138
200 200 209 213 215 203 165 198 227 234 220 224 223 220 225 182 196 204 181 189 190 161 287 272 261 248 211 197 204 208 200 221 248 146 213 224 198 207 192 118 134 146 153
196 202 207 213 218 192 174 200 216 224 220 216 221 218 220 199 200 217 206 190 187 171 189 226 250 242 227 170 203 218 187 188 198 180 204 239 210 214 193 152 149 161 167
197 201 200 212 219 195 175 193 213 221 216 214 215 211 212 201 151 192 222 202 187 164 124 87 55 65 77 102 186 196 186 207 213 188 192 235 226 224 211 193 163 173 178
199 196 200 214 218 211 180 190 208 225 214 212 204 199 196 207 152 183 216 210 207 191 160 148 150 158 162 158 185 225 222 232 234 206 170 224 223 220 228 197 187 180 189